CW5882 Weather Reports


time (UTC)temp
C
wind
direction
speed
KPH
gust
KPH
rain 1hr
cm
rain 24hr
cm
rain mn
cm
humidity
%
barometer
mb
20260507211309 16 278 3.2 6.4 0.00 0.00 0.00 43 1010.8
20260507210251 15 316 1.6 4.8 0.00 0.00 0.00 44 1010.9
20260507205239 15 290 3.2 6.4 0.00 0.00 0.00 45 1011.3
20260507204224 14 112 0.0 3.2 0.00 0.00 0.00 45 1011.0
20260507203259 14 270 3.2 11.3 0.00 0.00 0.00 44 1011.0
20260507202236 14 344 1.6 3.2 0.00 0.00 0.00 45 1011.0
20260507201223 15 182 0.0 6.4 0.00 0.00 0.00 45 1011.2
20260507200307 15 213 1.6 3.2 0.00 0.00 0.00 43 1011.2
20260507195248 16 231 3.2 12.9 0.00 0.00 0.00 44 1011.0
20260507194234 15 277 3.2 4.8 0.00 0.00 0.00 45 1011.3
20260507193242 15 226 3.2 9.7 0.00 0.00 0.00 44 1011.4
20260507192259 15 349 1.6 9.7 0.00 0.00 0.00 46 1011.4
20260507191237 16 289 6.4 11.3 0.00 0.00 0.00 45 1011.3
20260507190222 16 342 3.2 6.4 0.00 0.00 0.00 46 1011.5
20260507185305 16 338 4.8 14.5 0.00 0.00 0.00 43 1011.4
20260507184310 15 330 4.8 6.4 0.00 0.00 0.00 46 1011.5
20260507183237 13 275 1.6 4.8 0.00 0.00 0.00 49 1012.0
20260507182313 13 290 1.6 11.3 0.00 0.00 0.00 48 1012.0
20260507181259 13 347 1.6 4.8 0.00 0.00 0.00 50 1011.9
20260507180239 13 352 1.6 9.7 0.00 0.00 0.00 49 1012.1
20260507175226 13 291 1.6 4.8 0.00 0.00 0.00 50 1012.0
20260507174314 14 324 4.8 11.3 0.00 0.00 0.00 46 1012.1
20260507173249 14 283 3.2 6.4 0.00 0.00 0.00 48 1012.0
20260507172233 13 273 1.6 6.4 0.00 0.00 0.00 49 1012.5
20260507171221 14 293 0.0 3.2 0.00 0.00 0.00 50 1012.5
20260507170310 14 270 3.2 6.4 0.00 0.00 0.00 48 1012.6
20260507165329 13 326 0.0 1.6 0.00 0.00 0.00 53 1012.7
20260507164237 12 307 0.0 6.4 0.00 0.00 0.00 55 1012.6
20260507163318 12 14 3.2 9.7 0.00 0.00 0.00 51 1013.0
20260507162306 13 318 4.8 6.4 0.00 0.00 0.00 49 1012.9
20260507161248 12 270 0.0 3.2 0.00 0.00 0.00 53 1013.3
20260507160232 12 292 3.2 6.4 0.00 0.00 0.00 52 1013.3
20260507155311 13 348 3.2 6.4 0.00 0.00 0.00 51 1013.3
20260507154244 14 325 4.8 4.8 0.00 0.00 0.00 53 1013.4
20260507153251 12 150 1.6 6.4 0.00 0.00 0.00 51 1013.4
20260507152216 12 167 3.2 9.7 0.00 0.00 0.00 52 1013.5
20260507151301 12 330 0.0 4.8 0.00 0.00 0.00 58 1013.8
20260507150246 12 171 1.6 6.4 0.00 0.00 0.00 56 1013.9
20260507145217 11 289 0.0 4.8 0.00 0.00 0.00 59 1014.1
20260507144302 12 294 1.6 4.8 0.00 0.00 0.00 58 1014.2
20260507143247 12 231 0.0 1.6 0.00 0.00 0.00 59 1013.8
20260507142230 12 96 1.6 3.2 0.00 0.00 0.00 60 1014.4
20260507141316 12 303 1.6 9.7 0.00 0.00 0.00 61 1014.4
20260507140301 11 134 0.0 3.2 0.00 0.00 0.00 64 1014.6
20260507135246 11 133 3.2 4.8 0.00 0.00 0.00 67 1014.4
20260507134234 11 181 1.6 3.2 0.00 0.00 0.00 71 1014.7
20260507133216 10 181 1.6 4.8 0.00 0.03 0.00 70 1014.8
20260507132258 10 181 1.6 4.8 0.00 0.05 0.00 74 1014.7
20260507131258 9 181 1.6 4.8 0.00 0.05 0.00 74 1014.9
20260507130221 8 226 1.6 3.2 0.00 0.05 0.00 79 1015.1
20260507125322 8 227 1.6 3.2 0.00 0.05 0.00 79 1014.8
20260507124249 7 227 0.0 4.8 0.00 0.05 0.00 83 1014.3
20260507123235 7 0.0 1.6 0.00 0.08 0.00 87 1014.7
20260507122219 7 0.0 1.6 0.00 0.10 0.00 89 1014.8
20260507121302 6 333 0.0 1.6 0.00 0.13 0.00 89 1015.0
20260507120249 6 0.0 0.0 0.00 0.13 0.00 90 1015.1
20260507115237 5 0.0 0.0 0.00 0.15 0.00 91 1014.9
20260507114220 4 0.0 0.0 0.00 0.15 0.00 94 1015.0
20260507113304 3 0.0 0.0 0.00 0.15 0.00 95 1015.1
20260507112242 2 0.0 0.0 0.00 0.15 0.00 98 1014.6
20260507111230 2 0.0 0.0 0.00 0.18 0.00 100 1014.4
20260507110318 2 0.0 0.0 0.00 0.23 0.00 100 1014.8
20260507105256 2 0.0 0.0 0.00 0.28 0.00 100 1014.7
20260507104241 2 0.0 0.0 0.00 0.33 0.00 100 1014.4
20260507103244 1 0.0 0.0 0.00 0.38 0.00 100 1014.1
20260507102310 1 0.0 0.0 0.00 0.46 0.00 100 1014.3
20260507101315 2 0.0 0.0 0.00 0.51 0.00 100 1014.2
20260507100230 1 0.0 0.0 0.00 0.53 0.00 99 1014.3
20260507095217 1 0.0 0.0 0.00 0.58 0.00 99 1014.2
20260507094301 1 0.0 0.0 0.00 0.66 0.00 99 1014.0
20260507093245 1 0.0 0.0 0.00 0.74 0.00 98 1014.1
20260507092254 2 0.0 0.0 0.00 0.79 0.00 98 1014.2
20260507091239 2 0.0 0.0 0.00 0.84 0.00 98 1014.4
20260507090302 2 0.0 0.0 0.00 0.91 0.00 98 1014.1
20260507085236 2 0.0 0.0 0.00 0.97 0.00 97 1014.4
20260507084318 2 0.0 0.0 0.00 0.99 0.00 97 1014.4
20260507083253 3 0.0 0.0 0.00 1.04 0.00 97 1014.6
20260507082238 3 0.0 0.0 0.00 1.04 0.00 96 1014.1
20260507081219 3 0.0 0.0 0.00 1.04 0.00 96 1014.4
20260507080322 3 0.0 0.0 0.00 1.04 0.00 95 1014.5
20260507075247 3 0.0 0.0 0.00 1.04 0.00 94 1014.3
20260507074229 3 0.0 0.0 0.00 1.04 0.00 93 1014.5
20260507073317 3 0.0 0.0 0.00 1.04 0.00 92 1014.5
20260507072306 4 0.0 0.0 0.00 1.04 0.00 90 1014.3
20260507071253 5 0.0 0.0 0.00 1.07 0.00 88 1014.4
20260507070237 5 0.0 0.0 0.00 1.09 0.00 88 1014.3
20260507065219 5 0.0 0.0 0.00 1.12 0.00 86 1014.4
20260507064302 5 0.0 0.0 0.00 1.14 0.00 85 1014.7
20260507063243 6 0.0 0.0 0.00 1.17 0.00 83 1014.9
20260507062230 6 0.0 0.0 0.00 1.19 0.00 81 1014.1
20260507061315 6 0.0 0.0 0.00 1.22 0.00 82 1014.7
20260507060302 6 0.0 0.0 0.00 1.24 0.00 82 1014.7
20260507055241 6 0.0 0.0 0.00 1.24 0.00 83 1014.8
20260507054230 7 0.0 0.0 0.00 1.27 0.00 80 1015.0
20260507053317 7 0.0 0.0 0.00 1.32 0.00 79 1015.2
20260507052251 7 0.0 0.0 0.00 1.35 0.00 79 1015.4
20260507051226 7 0.0 0.0 0.00 1.37 0.00 78 1015.2
20260507050315 7 0.0 0.0 0.00 1.37 0.00 78 1015.0
20260507045252 7 0.0 0.0 0.00 1.37 0.00 77 1015.2
20260507044239 7 0.0 0.0 0.00 1.37 0.00 77 1015.1
20260507043223 7 0.0 0.0 0.00 1.37 0.00 74 1015.1
20260507042257 7 0.0 1.6 0.00 1.37 0.00 75 1015.0
20260507041245 7 0.0 0.0 0.00 1.37 0.00 79 1015.1
20260507040223 7 0.0 0.0 0.00 1.37 0.00 77 1015.6
20260507035309 7 0.0 0.0 0.00 1.37 1.37 78 1015.1
20260507034254 7 0.0 0.0 0.00 1.37 1.37 76 1014.7
20260507033238 7 0.0 0.0 0.00 1.37 1.37 77 1015.0
20260507032226 7 0.0 0.0 0.00 1.37 1.37 74 1014.7
20260507031314 8 0.0 0.0 0.00 1.37 1.37 74 1015.0
20260507025229 8 0.0 0.0 0.00 1.37 1.37 71 1014.6
20260507024316 8 0.0 0.0 0.00 1.37 1.37 70 1014.7
20260507023258 8 0.0 0.0 0.00 1.37 1.37 69 1014.5
20260507022238 8 0.0 0.0 0.00 1.37 1.37 70 1014.6
20260507021247 8 0.0 0.0 0.00 1.37 1.37 68 1014.5
20260507020309 8 0.0 1.6 0.00 1.37 1.37 67 1014.0
20260507015245 8 324 0.0 1.6 0.00 1.37 1.37 66 1013.8
20260507014224 8 323 1.6 3.2 0.00 1.37 1.37 64 1014.1
20260507013312 9 0.0 1.6 0.00 1.37 1.37 64 1014.0
20260507012314 9 0.0 1.6 0.00 1.37 1.37 64 1013.9
20260507011234 9 331 1.6 3.2 0.00 1.37 1.37 65 1014.3
20260507010221 10 333 0.0 1.6 0.00 1.37 1.37 68 1014.2
20260507005309 10 0.0 1.6 0.00 1.37 1.37 67 1014.6
20260507004256 10 329 1.6 3.2 0.00 1.37 1.37 67 1014.6
20260507003234 10 0.0 0.0 0.00 1.37 1.37 69 1014.2
20260507002306 10 334 0.0 3.2 0.00 1.37 1.37 67 1014.3
20260507001313 10 336 0.0 1.6 0.00 1.37 1.37 67 1014.2
20260507000240 10 6 0.0 1.6 0.00 1.37 1.37 68 1014.2
20260506235221 10 0.0 3.2 0.00 1.37 1.37 67 1014.2
20260506234309 10 318 0.0 4.8 0.00 1.37 1.37 67 1013.9
20260506233314 11 231 1.6 1.6 0.00 1.37 1.37 66 1013.9
20260506232235 11 246 0.0 3.2 0.00 1.37 1.37 68 1013.5
20260506231241 11 41 0.0 4.8 0.00 1.37 1.37 69 1013.3
20260506230330 11 331 1.6 3.2 0.00 1.37 1.37 69 1013.3
20260506225250 11 338 1.6 3.2 0.00 1.37 1.37 72 1012.7
20260506224237 11 323 1.6 3.2 0.00 1.37 1.37 71 1012.9
20260506223302 12 0.0 3.2 0.00 1.37 1.37 73 1013.1
20260506222301 11 236 0.0 1.6 0.00 1.37 1.37 73 1013.0
20260506221300 11 312 1.6 1.6 0.00 1.37 1.37 72 1012.6
20260506220223 11 337 0.0 1.6 0.00 1.37 1.37 73 1012.6
20260506215332 11 336 0.0 3.2 0.00 1.42 1.37 74 1012.7
20260506214319 11 324 0.0 3.2 0.00 1.42 1.37 77 1012.7
20260506213302 11 343 1.6 6.4 0.00 1.42 1.37 78 1012.6
20260506212229 11 326 1.6 4.8 0.00 1.42 1.37 77 1012.4